STARLINK-36814, 67904

Orbit data source: Space-Track

STARLINK-36814, 67904 is a payload satellite owned by SpaceX/Seattle (US) in LEO that was launched on Sun, 22 Feb 2026 UTC via an FALCON 9 launch vehicle from the Air Force Eastern Test Range (AFETR). Payload-class satellites include a variety of spacecraft equipped with specific instruments for various scientific and technological missions. These include communications satellites like Starlink; space stations such as the ISS; scientific satellites like the Hubble; Earth observation satellites from companies like Planet Labs, Umbra, and HawkEye 360; GPS; miniature CubeSats for education and research; and military/defense satellites.

Loading next visibility...
Identifier
67904, 2026-036A
Orbit
LEO
Country
Flag of USUS
Related business
Manufacturer
SpaceX/Seattle
Mission
Operational Commercial Communications
Bus & Motor
STARLINK V2MO, Unknown motor
Mass
575 kg wet, ~530 kg dry
Launch date (UTC)
2026-02-22 (4 months ago)
Launch vehicle
FALCON 9
Launch site
Air Force Eastern Test Range (AFETR)
Object type
Payload
Rocket body
Debris
Shape & HBR
Box + 2 Pan, 17.7 m
Radar Cross Section
36.964 m², Large (>1 m²)

Expand to show TLE details & history
Last TLE update: 16 hours ago

TLE from 16 hours ago
0 STARLINK-36814
1 67904U 26036A   26171.32170391  .00011976  00000-0  44390-3 0  9993
2 67904  43.0033  26.0878 0001634 288.1641  71.9033 15.27587283 19412
Epoch: 2026-06-20T07:43Z
TLE epoch observation values (Epoch: 2026-06-20T07:43:15.217Z)
Latitude
-0.00001°
Longitude
1.73638°
Altitude
482.455 km
Speed
7.626 km/s
True Right ascension
01h 44m 21s
True Declination
0° 00' 00"
Sunlit
Object was in daylight at epoch
Visualization orbit readout
Latitude
Unknown
Longitude
Unknown
Altitude
Unknown
Speed
Unknown
Apparent Right ascension
Unknown
Apparent Declination
Unknown
Sunlit
N/A
Visualization observer readout
Local Sidereal Time
10:17:12
Azimuth
Unknown
Elevation
Unknown
Doppler factor
Unknown
Orbital elements
Apogee altitude
486.093 km
Perigee altitude
483.85 km
Semi-major axis
6,863.109 km
Eccentricity
0.00016
Inclination
43.0033°
RAAN
26.0878°
Arg. of periapsis
288.1641°
True anomaly
71.9211°
Mean anomaly
71.9033°
Eccentric anomaly
71.9122°
Mean motion
3.81735 °/min
Orbital period
94.31 mins
BSTAR
0.0004439
Loading maneuver chart data...
Computing Atmospheric mass density...
Loading historical data...
Loading historical data...
Loading historical data...
Loading historical data...
Loading historical data...
Loading historical data...
Loading historical data...

Documentation

Showing up to 5 results
|